Regional Weather Roundup
Issued by NWS

Home | Current Version | Previous Version | Graphics & Text | Print | Product List | Glossary On
Versions: 1 2 3 4 5 6 7 8 9 10 11 12 13 14 15 16 17 18 19 20 21 22 23 24 25 26 27 28 29 30 31 32 33 34 35 36 37 38 39 40 41 42 43 44 45 46 47 48 49 50
961
ASUS43 KMPX 130501
RWRMN
WEATHER ROUNDUP FOR MINNESOTA
NATIONAL WEATHER SERVICE TWIN CITIES/CHANHASSEN MN
1100 PM CST TUE DEC 12 2017


NOTE: "FAIR" INDICATES FEW OR NO CLOUDS BELOW 12,000 FEET WITH NO
SIGNIFICANT WEATHER AND/OR OBSTRUCTIONS TO VISIBILITY. N/A MEANS
CURRENT SKY AND/OR WEATHER CONDITIONS ARE NOT AVAILABLE.

MNZ060>063-068>070-130600-
   Twin Cities Metro

CITY           SKY/WX    TMP DP  RH WIND       PRES   REMARKS
TWIN CITIES    CLOUDY    26  23  88 SE7       29.63F WCI  18
ST PAUL        CLOUDY    24  20  84 SE8       29.65F WCI  15
CRYSTAL        CLOUDY    24  19  81 S7        29.60F WCI  16
BLAINE         CLOUDY    25  21  86 SE8       29.61F WCI  16
LAKEVILLE      CLOUDY    27  25  93 S5        29.64F WCI  21
EDEN PRAIRIE   CLOUDY    30  25  81 S10       29.61F WCI  21
SOUTH ST PAUL  CLOUDY    24  20  85 SE3       29.63F
LAKE ELMO      MOCLDY    25  21  86 SE5       29.64F WCI  19
$$
MNZ001>005-007-008-013>017-022>024-027-028-130600-
   Northwest Minnesota

CITY           SKY/WX    TMP DP  RH WIND       PRES   REMARKS
BEMIDJI        CLOUDY    18  16  93 SE10      29.44F WCI   6
HALLOCK        CLOUDY    28  27  93 CALM      29.41S
ROSEAU         CLOUDY    19  16  86 E8        29.44F WCI   9
WARROAD        CLOUDY    18  14  86 SE7       29.45F WCI   8
CROOKSTON      CLOUDY    30  28  93 S8        29.43S WCI  23
FOSSTON        CLOUDY    30  25  80 S12       29.41F WCI  21
DETROIT LAKES  CLOUDY    28  28 100 S6        29.45F WCI  22
MOORHEAD       CLOUDY    30  27  86 CALM      29.44F
PARK RAPIDS    CLOUDY    19  16  88 SE8       29.46F WCI   9
MAHNOMEN       FAIR      32  27  82 S8        29.41F WCI  25
$$
MNZ006-009>011-018-025>026-130600-
   North Central Minnesota

CITY           SKY/WX    TMP DP  RH WIND       PRES   REMARKS
BAUDETTE       CLOUDY    15  13  91 SE12      29.47F WCI   2
FLAG ISLAND    CLOUDY    14  10  85 SE7       29.48F WCI   4
INTL FALLS     CLOUDY    13   9  84 SE10      29.54F WCI   0
WASKISH        CLOUDY    18  16  93 SE9       29.47F WCI   6
LONGVILLE      CLOUDY    18  16  93 SE6       29.51F WCI   9
GRAND RAPIDS   CLOUDY    13  10  88 SE12      29.56F WCI  -1
CRANE LAKE     FLURRIES  12   9  85 CALM      29.62F
ORR            CLOUDY    12   9  85 SE7       29.53F WCI   2
COOK           CLOUDY    12  10  92 SE6       29.57F WCI   3
WALKER         MOCLDY    18  16  90 SE5       29.48F WCI  11
$$
MNZ012-019>021-037-130600-
   Northeast Minnesota

CITY           SKY/WX    TMP DP  RH WIND       PRES   REMARKS
DULUTH         CLOUDY    12  10  92 SE10      29.61F WCI  -1
ELY            CLOUDY    12   9  85 SE9       29.60F WCI   0
HIBBING        CLOUDY    11   9  92 SE10      29.59F WCI  -3
EVELETH        FLURRIES  12   9  85 SE5       29.60F WCI   4
DULUTH HARBOR  CLOUDY    16  12  86 SE5       29.70F WCI   9
TWO HARBORS    CLOUDY    19  14  79 SE5       29.65F WCI  13
GRAND MARAIS     N/A     20  12  71 SE12      29.76F WCI   8
G MARAIS ARPRT LGT SNOW   9   1  72 SE3       29.66F
$$
MNZ029>031-032-039>041-046>048-054>057-064-130600-
   West Central Minnesota

CITY           SKY/WX    TMP DP  RH WIND       PRES   REMARKS
FERGUS FALLS   CLOUDY    30  27  86 S8        29.49F WCI  23
WHEATON        CLOUDY    36  25  64 S6        29.49F
MORRIS         CLOUDY    28  27  93 S9        29.49F WCI  20
ALEXANDRIA     CLOUDY    32  27  81 S9        29.49F WCI  24
ELBOW LAKE     FAIR      31  27  86 S10       29.48F WCI  22
WADENA         CLOUDY    23  23 100 SE5       29.48F WCI  17
GLENWOOD       CLOUDY    28  27  93 S6        29.51F WCI  22
APPLETON       CLOUDY    36  27  69 S6        29.51F
BENSON         CLOUDY    30  27  86 S7        29.53F WCI  23
ORTONVILLE     CLOUDY    37  25  60 SW3       29.49F
MADISON        CLOUDY    39  28  65 SW8       29.51F
WILLMAR        FAIR      28  27  93 S3        29.55F
$$
MNZ033>034-036-042>043-049>051-058-059-130600-
   Central Minnesota

CITY           SKY/WX    TMP DP  RH WIND       PRES   REMARKS
ST CLOUD       CLOUDY    20  18  92 SE6       29.57F WCI  12
SAUK CENTRE    FAIR      24  22  93 SE5       29.52F WCI  18
PAYNESVILLE    CLOUDY    29  28  96 S8        29.54F WCI  21
AITKIN         CLOUDY    16  12  86 SE6       29.55F WCI   7
PINE RIVER     CLOUDY    18  16  93 SE7       29.55F WCI   8
BRAINERD       CLOUDY    21  17  84 SE8       29.53F WCI  11
STAPLES        PTCLDY    19  18  93 SE7       29.49F WCI  10
LONG PRAIRIE   MOCLDY    19  19 100 E3        29.52F FOG
LITTLE FALLS   CLOUDY    19  14  79 SE5       29.54F WCI  13
LITCHFIELD     CLOUDY    30  28  93 S3        29.57F
BUFFALO        CLOUDY    29  25  86 S8        29.59F WCI  21
MAPLE LAKE     CLOUDY    28  26  94 S5        29.58F WCI  23
HUTCHINSON     CLOUDY    28  27  93 S5        29.59F WCI  23
$$
MNZ037-044-045-052-053-130600-
   East Central Minnesota

CITY           SKY/WX    TMP DP  RH WIND       PRES   REMARKS
PRINCETON      CLOUDY    19  16  86 E5        29.58F WCI  13
MORA           CLOUDY    18  12  79 E5        29.62F WCI  11
CAMBRIDGE      CLOUDY    21  14  73 SE5       29.61F WCI  15
RUSH CITY      CLOUDY    18  14  83 E3        29.63F
MOOSE LAKE     CLOUDY    16  10  79 SE7       29.60F WCI   6
HINCKLEY       CLOUDY    18  14  86 E6        29.62F WCI   9
CLOQUET        FLURRIES  12   9  85 E8        29.61F WCI   1
MCGREGOR       CLOUDY    16  12  86 SE8       29.58F WCI   5
$$
MNZ071>073-080-081-089-090-097-098-130600-
   Southwest Minnesota

CITY           SKY/WX    TMP DP  RH WIND       PRES   REMARKS
MONTEVIDEO     MOCLDY    34  28  80 SW9       29.52F WCI  26
GRANITE FALLS  PTCLDY    32  28  83 S10       29.58F WCI  24
CANBY          PTCLDY    44  27  51 SW18G24   29.53F
MARSHALL       CLOUDY    39  26  59 SW16      29.56F
REDWOOD FALLS  CLOUDY    30  25  81 S7        29.58F WCI  23
OLIVIA         PTCLDY    30  27  86 S7        29.56F WCI  23
PIPESTONE      CLOUDY    30  25  80 SW10      29.60F WCI  21
WINDOM         PTCLDY    32  19  59 S10       29.62F WCI  24
WORTHINGTON    CLOUDY    31  25  78 SW15      29.62F WCI  20
JACKSON        CLEAR     32  27  80 MISG      29.63F
SLAYTON        PTCLDY    32  26  78 S10       29.62F WCI  24
$$
MNZ065>067-074>077-082>085-091>093-130600-
   South Central Minnesota

CITY           SKY/WX    TMP DP  RH WIND       PRES   REMARKS
MANKATO        CLOUDY    29  25  85 S9        29.64F WCI  20
NEW ULM        CLOUDY    28  25  86 S8        29.62F WCI  20
ST JAMES       CLOUDY    28  25  86 S10       29.63F WCI  19
FAIRMONT       CLOUDY    28  24  85 S15       29.64F WCI  16
GLENCOE        PTCLDY    30  28  89 S9        29.60F WCI  22
FARIBAULT      CLOUDY    28  25  86 S8        29.65F WCI  20
OWATONNA       CLOUDY    30  25  80 S15       29.66F WCI  19
WASECA         CLOUDY    30  27  86 S9        29.66F WCI  22
ALBERT LEA     CLOUDY    30  21  69 S8        29.69F WCI  23
$$
MNZ078>079-086>088-094>096-130600-
   Southeast Minnesota

CITY           SKY/WX    TMP DP  RH WIND       PRES   REMARKS
ROCHESTER      PTCLDY    26  21  81 S17       29.68F WCI  13
RED WING       CLOUDY    27  19  74 SE6       29.67F WCI  20
STANTON        CLOUDY    30  25  79 S10       29.63F WCI  21
DODGE CENTER   CLOUDY    27  21  80 S15       29.67F WCI  15
WINONA         CLOUDY    28  19  69 SE7       29.74F WCI  21
PRESTON        CLOUDY    27  20  75 SW16      29.71F WCI  14
$$
ABBREVIATIONS USED IN REMARKS
   TC - TEMPERATURES IN CELSIUS
  WCI - WIND CHILL INDEX
   HX - HEAT INDEX
  VSB - VISIBILITY
$$




USA.gov is the U.S. government's official web portal to all federal, state and local government web resources and services.